Location: Newark
(48.9358°N, 1.4000°E)
Time: 20:16:42
(UTC+00:00)

N. Korean satellite - Pass Details

Date: 23 October 2019
Orbit: 456 x 506 km, 97.2° (Epoch: 22 November)

Event Time Altitude Azimuth Distance (km) Brightness Sun altitude
Rises 05:03:47 0° 25° (NNE) 2,569 10.6 -14.2°
Reaches altitude 10° 05:06:13 10° 42° (NE) 1,692 9.9 -13.8°
Maximum altitude 05:09:05 21° 93° (E) 1,145 9.5 -13.4°
Drops below altitude 10° 05:11:57 10° 145° (SE) 1,699 9.8 -12.9°
Sets 05:14:23 0° 161° (SSE) 2,584 10.5 -12.5°
